Simultaneous Nadir Overpasses (SNOs) Predictions

Prediction of SNOs between GOES-14 and NOAA-20 Satellite Orbit:

Table of predicted SNOs for the next 14.0 days since TLE Epoch: 5/28/2022
Index Date Time (GOES-14) GOES-14 Lat,Lon NOAA-20 Lat,Lon Distance(km) Time Diff (sec)
1 05/28/2022 20:08:57 -0.03,-104.66 0.72,-101.33 379.84 80
2 05/30/2022 08:30:43 -0.00,-104.45 0.50,-106.59 244.42 80
3 05/31/2022 08:14:39 0.01,-104.46 -0.54,-102.06 273.05 80
4 06/01/2022 20:36:36 0.02,-104.69 -0.57,-107.39 307.48 80
5 06/02/2022 20:15:11 -0.00,-104.68 0.41,-102.85 209.09 80
6 06/04/2022 08:36:57 -0.03,-104.45 0.81,-108.11 416.98 80
7 06/05/2022 08:20:53 -0.02,-104.46 -0.24,-103.58 100.57 80
8 06/06/2022 20:40:10 0.04,-104.70 -0.87,-108.90 478.09 80
9 06/07/2022 20:24:04 0.03,-104.71 0.12,-104.37 38.85 80
10 06/10/2022 08:24:25 -0.04,-104.47 0.11,-105.09 71.00 80
